DLH770 LKPR-RKSM

Flight info

Callsign DLH770
Flight time N/A
Altitude 35000
Route VOZ DCT LIKSA DCT PEPIK DCT ADUKU DCT DINRO N743 UDROS/N0469F270 M859 KARDE N644 ROLIN/N0481F350 N644 LAGAS M747 SUBUT/N0476F370 T923 ERLEV L850 BAKUV N701 LARGI B701 KRS B738 NEBIT B476 TIMGA A480 OTBOR/K0870F370 N147 TRK Z621 ARBOL M610 RULAD/K0872S1130 A343 POSOT B215 IGBIS/K0865S1190 B215 FKG W188 GOVSA W66 DKO W69 HUR B339 LADIX W34 ANRAT A326 DONVO G597 AGAVO/N0463F390 Y644 POLEG A582 SEL
Aircraft A333/H-SDE3GHIJ2J3J5M1RVWXY/LB2D1

Departure

Time 2026-05-06 18:18
Airport Václav Havel Airport Prague (LKPR)

Arrival

Time N/A
Airport Seoul Air Base (K-16) (RKSM)
Time Latitude Longitude Altitude Speed Heading
2026-05-06 17:06 50.10617 14.26191 1179 ft 0 kts 35°
2026-05-06 17:07 50.10741 14.26305 1177 ft 0 kts 214°
2026-05-06 17:08 50.10849 14.26439 1177 ft 0 kts 34°
2026-05-06 17:09 50.11014 14.26991 1186 ft 0 kts 245°
2026-05-06 17:11 50.10849 14.26439 1177 ft 1 kts 34°
2026-05-06 17:56 50.10848 14.26438 1177 ft 0 kts 34°
2026-05-06 17:56 50.10840 14.26428 1177 ft 2 kts 27°
2026-05-06 17:57 50.10826 14.26419 1177 ft 2 kts 12°
2026-05-06 17:57 50.10811 14.26416 1177 ft 2 kts 360°
2026-05-06 17:57 50.10796 14.26418 1178 ft 2 kts 347°
2026-05-06 17:57 50.10782 14.26424 1179 ft 2 kts 335°
2026-05-06 17:58 50.10768 14.26436 1180 ft 2 kts 321°
2026-05-06 17:58 50.10758 14.26450 1181 ft 2 kts 310°
2026-05-06 17:58 50.10753 14.26460 1181 ft 1 kts 303°
2026-05-06 17:58 50.10753 14.26462 1181 ft 0 kts 303°
2026-05-06 18:01 50.10754 14.26457 1181 ft 3 kts 303°
2026-05-06 18:01 50.10788 14.26378 1177 ft 15 kts 304°
2026-05-06 18:01 50.10839 14.26235 1171 ft 19 kts 301°
2026-05-06 18:02 50.10873 14.26082 1169 ft 13 kts 235°
2026-05-06 18:02 50.10810 14.26012 1171 ft 13 kts 215°
2026-05-06 18:02 50.10733 14.25926 1174 ft 16 kts 215°
2026-05-06 18:02 50.10670 14.25858 1176 ft 0 kts 214°
2026-05-06 18:06 50.10654 14.25841 1177 ft 6 kts 214°
2026-05-06 18:06 50.10608 14.25779 1178 ft 11 kts 238°
2026-05-06 18:06 50.10619 14.25695 1177 ft 9 kts 300°
2026-05-06 18:06 50.10646 14.25617 1177 ft 10 kts 298°
2026-05-06 18:07 50.10685 14.25510 1176 ft 15 kts 298°
2026-05-06 18:07 50.10742 14.25346 1174 ft 19 kts 299°
2026-05-06 18:07 50.10753 14.25319 1173 ft 0 kts 299°
2026-05-06 18:12 50.10762 14.25291 1173 ft 7 kts 299°
2026-05-06 18:12 50.10780 14.25243 1172 ft 0 kts 299°
2026-05-06 18:12 50.10784 14.25233 1172 ft 5 kts 299°
2026-05-06 18:12 50.10809 14.25129 1170 ft 0 kts 277°
2026-05-06 18:15 50.10813 14.25077 1169 ft 10 kts 276°
2026-05-06 18:15 50.10818 14.24905 1167 ft 20 kts 268°
2026-05-06 18:15 50.10792 14.24675 1168 ft 13 kts 244°
2026-05-06 18:15 50.10733 14.24686 1169 ft 8 kts 135°
2026-05-06 18:16 50.10701 14.24746 1169 ft 0 kts 127°
2026-05-06 18:17 50.10696 14.24755 1170 ft 7 kts 127°
2026-05-06 18:17 50.10541 14.25075 1177 ft 71 kts 127°
2026-05-06 18:17 50.10113 14.25962 1198 ft 134 kts 127°
2026-05-06 18:18 50.09458 14.27335 1265 ft 179 kts 124°
2026-05-06 18:18 50.08726 14.28932 1873 ft 182 kts 126°
2026-05-06 18:18 50.07939 14.30480 2565 ft 188 kts 125°
2026-05-06 18:18 50.07155 14.32074 3333 ft 192 kts 123°
2026-05-06 18:19 50.06324 14.33793 3945 ft 201 kts 124°
2026-05-06 18:19 50.05471 14.35551 4119 ft 211 kts 124°
2026-05-06 18:19 50.04558 14.37433 4229 ft 226 kts 125°
2026-05-06 18:19 50.03579 14.39448 4398 ft 244 kts 125°
2026-05-06 18:20 50.02521 14.41628 4667 ft 260 kts 126°
2026-05-06 18:20 50.01413 14.43904 4984 ft 267 kts 126°
2026-05-06 18:20 50.00290 14.46210 4981 ft 270 kts 126°
2026-05-06 18:20 49.99161 14.48523 4983 ft 269 kts 127°
2026-05-06 18:21 49.97742 14.50438 4999 ft 271 kts 150°
2026-05-06 18:21 49.96073 14.51809 5013 ft 272 kts 150°
2026-05-06 18:21 49.94426 14.53196 4989 ft 271 kts 150°
2026-05-06 18:21 49.92746 14.54607 5080 ft 279 kts 150°
2026-05-06 18:22 49.91057 14.56025 5906 ft 272 kts 150°
2026-05-06 18:22 49.89423 14.57396 6644 ft 269 kts 150°
2026-05-06 18:22 49.87752 14.58797 7205 ft 273 kts 151°
2026-05-06 18:22 49.86089 14.60190 7807 ft 275 kts 152°
2026-05-06 18:23 49.84386 14.61612 8400 ft 278 kts 152°
2026-05-06 18:23 49.82687 14.63034 8951 ft 281 kts 153°
2026-05-06 18:23 49.80965 14.64471 9518 ft 283 kts 153°
2026-05-06 18:23 49.79232 14.65915 10043 ft 287 kts 154°
2026-05-06 18:24 49.77408 14.67432 10220 ft 305 kts 154°
2026-05-06 18:24 49.75521 14.69004 10404 ft 321 kts 154°
2026-05-06 18:24 49.73496 14.70688 10589 ft 337 kts 154°
2026-05-06 18:24 49.71366 14.72459 10771 ft 352 kts 154°
2026-05-06 18:25 49.69210 14.74249 11228 ft 358 kts 154°
2026-05-06 18:25 49.67022 14.76066 11796 ft 359 kts 154°
2026-05-06 18:25 49.64790 14.77915 12289 ft 363 kts 154°
2026-05-06 18:25 49.62558 14.79763 12767 ft 366 kts 155°
2026-05-06 18:26 49.60322 14.81612 13231 ft 370 kts 155°
2026-05-06 18:26 49.58035 14.83500 13733 ft 372 kts 155°
2026-05-06 18:26 49.55741 14.85393 14236 ft 374 kts 155°
2026-05-06 18:26 49.53591 14.87653 14637 ft 383 kts 140°
2026-05-06 18:27 49.51976 14.90953 15009 ft 395 kts 120°
2026-05-06 18:27 49.50793 14.94800 15525 ft 396 kts 119°
2026-05-06 18:27 49.49582 14.98589 15922 ft 399 kts 120°
2026-05-06 18:27 49.48346 15.02404 16339 ft 401 kts 120°
2026-05-06 18:28 49.47083 15.06277 16757 ft 404 kts 120°
2026-05-06 18:28 49.45822 15.10119 17114 ft 408 kts 121°
2026-05-06 18:28 49.44548 15.14000 17548 ft 410 kts 121°
2026-05-06 18:28 49.43253 15.17932 17970 ft 411 kts 121°
2026-05-06 18:29 49.41967 15.21838 18379 ft 413 kts 121°
2026-05-06 18:29 49.40664 15.25781 18765 ft 415 kts 121°
2026-05-06 18:29 49.39364 15.29716 19150 ft 418 kts 121°
2026-05-06 18:29 49.38051 15.33675 19527 ft 419 kts 121°
2026-05-06 18:30 49.36737 15.37637 19883 ft 422 kts 121°
2026-05-06 18:30 49.35408 15.41632 20296 ft 423 kts 121°
2026-05-06 18:30 49.34060 15.45686 20635 ft 426 kts 121°
2026-05-06 18:30 49.32709 15.49743 20976 ft 428 kts 122°
2026-05-06 18:31 49.31371 15.53743 21362 ft 429 kts 122°
2026-05-06 18:31 49.29998 15.57852 21682 ft 431 kts 122°
2026-05-06 18:31 49.28633 15.61923 21966 ft 435 kts 122°
2026-05-06 18:31 49.27264 15.66007 22292 ft 436 kts 123°
2026-05-06 18:32 49.25876 15.70137 22583 ft 439 kts 122°
2026-05-06 18:32 49.24480 15.74289 22883 ft 441 kts 123°
2026-05-06 18:32 49.23078 15.78447 23197 ft 443 kts 123°
2026-05-06 18:32 49.21665 15.82625 23447 ft 446 kts 123°
2026-05-06 18:33 49.20245 15.86832 23716 ft 448 kts 123°
2026-05-06 18:33 49.18809 15.91066 24095 ft 448 kts 123°
2026-05-06 18:33 49.17370 15.95308 24383 ft 450 kts 123°
2026-05-06 18:33 49.15917 15.99579 24597 ft 454 kts 123°
2026-05-06 18:34 49.14534 16.03934 24828 ft 459 kts 120°
2026-05-06 18:34 49.13058 16.08150 25089 ft 458 kts 124°
2026-05-06 18:34 49.11543 16.12470 25388 ft 460 kts 123°
2026-05-06 18:34 49.10053 16.16781 25645 ft 463 kts 123°
2026-05-06 18:35 49.08561 16.21117 25888 ft 465 kts 122°
2026-05-06 18:35 49.07064 16.25477 26181 ft 467 kts 123°
2026-05-06 18:35 49.05541 16.29899 26384 ft 470 kts 123°
2026-05-06 18:35 49.04030 16.34287 26662 ft 472 kts 123°
2026-05-06 18:36 49.02498 16.38722 26910 ft 474 kts 123°
2026-05-06 18:36 49.00959 16.43177 27150 ft 476 kts 123°
2026-05-06 18:36 48.99428 16.47601 27432 ft 477 kts 123°
2026-05-06 18:36 48.97873 16.52075 27617 ft 480 kts 122°
2026-05-06 18:37 48.96290 16.56631 27792 ft 483 kts 122°
2026-05-06 18:37 48.94722 16.61135 28145 ft 482 kts 122°
2026-05-06 18:37 48.93142 16.65671 28436 ft 483 kts 123°
2026-05-06 18:37 48.91580 16.70141 28761 ft 482 kts 123°
2026-05-06 18:38 48.90008 16.74632 29057 ft 481 kts 123°
2026-05-06 18:38 48.88427 16.79142 29374 ft 481 kts 123°
2026-05-06 18:38 48.86859 16.83602 29639 ft 482 kts 123°
2026-05-06 18:38 48.85310 16.88013 29747 ft 475 kts 123°
2026-05-06 18:39 48.82191 16.96848 29742 ft 477 kts 123°
2026-05-06 18:40 48.77522 17.10313 29739 ft 482 kts 120°
2026-05-06 18:40 48.74402 17.19204 29793 ft 481 kts 122°
2026-05-06 18:40 48.72852 17.23661 29996 ft 483 kts 122°
2026-05-06 18:41 48.71281 17.28196 30385 ft 481 kts 122°
2026-05-06 18:41 48.69738 17.32643 30728 ft 480 kts 122°
2026-05-06 18:41 48.68193 17.37092 30771 ft 480 kts 122°
2026-05-06 18:42 48.65087 17.46017 30784 ft 479 kts 122°
2026-05-06 18:42 48.61998 17.54863 30778 ft 478 kts 122°
2026-05-06 18:43 48.58872 17.63778 30890 ft 480 kts 122°
2026-05-06 18:43 48.57309 17.68231 31220 ft 479 kts 123°
2026-05-06 18:43 48.55725 17.72732 31626 ft 476 kts 123°
2026-05-06 18:43 48.54167 17.77150 31898 ft 476 kts 123°
2026-05-06 18:44 48.52593 17.81606 32195 ft 476 kts 123°
2026-05-06 18:44 48.51041 17.85993 32518 ft 474 kts 123°
2026-05-06 18:44 48.49493 17.90362 32869 ft 472 kts 123°
2026-05-06 18:44 48.47958 17.94686 33179 ft 471 kts 123°
2026-05-06 18:45 48.46407 17.99049 33446 ft 470 kts 123°
2026-05-06 18:45 48.44869 18.03369 33690 ft 470 kts 123°
2026-05-06 18:45 48.43316 18.07719 33966 ft 469 kts 123°
2026-05-06 18:45 48.41773 18.12039 34193 ft 469 kts 123°
2026-05-06 18:46 48.40243 18.16314 34461 ft 468 kts 123°
2026-05-06 18:46 48.38699 18.20618 34671 ft 467 kts 123°
2026-05-06 18:46 48.37159 18.24909 34835 ft 466 kts 123°
2026-05-06 18:47 48.34074 18.33477 34846 ft 465 kts 123°
2026-05-06 18:47 48.30989 18.42021 34850 ft 466 kts 123°
2026-05-06 18:48 48.27894 18.50561 34850 ft 466 kts 123°
2026-05-06 18:48 48.24780 18.59126 34851 ft 466 kts 123°
2026-05-06 18:49 48.21661 18.67683 34851 ft 465 kts 123°
2026-05-06 18:49 48.18552 18.76177 34864 ft 466 kts 123°
2026-05-06 18:50 48.15445 18.84641 34856 ft 467 kts 123°
2026-05-06 18:50 48.12322 18.93123 34866 ft 467 kts 123°
2026-05-06 18:51 48.09187 19.01609 34874 ft 466 kts 123°
2026-05-06 18:51 48.06030 19.10126 34879 ft 469 kts 123°
2026-05-06 18:52 48.02875 19.18613 34875 ft 469 kts 123°
2026-05-06 18:52 47.99710 19.27094 34874 ft 469 kts 123°
2026-05-06 18:53 47.96526 19.35606 34881 ft 469 kts 123°
2026-05-06 18:53 47.93370 19.44010 34887 ft 470 kts 122°
2026-05-06 18:54 47.90169 19.52511 34887 ft 471 kts 122°
2026-05-06 18:54 47.86960 19.61007 34886 ft 472 kts 122°
2026-05-06 18:55 47.83741 19.69500 34875 ft 472 kts 123°
2026-05-06 18:55 47.80512 19.77989 34878 ft 473 kts 123°
2026-05-06 18:56 47.77269 19.86495 34879 ft 473 kts 122°
2026-05-06 18:56 47.74043 19.94925 34878 ft 473 kts 122°
2026-05-06 18:57 47.70777 20.03433 34880 ft 473 kts 122°
2026-05-06 18:57 47.67532 20.11860 34882 ft 473 kts 122°
2026-05-06 18:58 47.64261 20.20327 34885 ft 474 kts 122°
2026-05-06 18:58 47.60982 20.28790 34884 ft 474 kts 122°
2026-05-06 18:59 47.57684 20.37273 34889 ft 474 kts 122°
2026-05-06 18:59 47.54402 20.45691 34882 ft 474 kts 122°
2026-05-06 19:00 47.51104 20.54121 34888 ft 474 kts 122°
2026-05-06 19:00 47.47818 20.62497 34891 ft 472 kts 122°
2026-05-06 19:01 47.44530 20.70847 34889 ft 473 kts 123°
2026-05-06 19:01 47.41228 20.79210 34889 ft 473 kts 123°
2026-05-06 19:02 47.37918 20.87570 34889 ft 474 kts 123°
2026-05-06 19:02 47.34588 20.95950 34885 ft 473 kts 123°
2026-05-06 19:03 47.31271 21.04273 34885 ft 473 kts 123°
2026-05-06 19:03 47.27948 21.12587 34887 ft 472 kts 122°
2026-05-06 19:04 47.24617 21.20893 34889 ft 472 kts 122°
2026-05-06 19:04 47.21284 21.29180 34898 ft 473 kts 122°
2026-05-06 19:05 47.17936 21.37480 34906 ft 474 kts 122°
2026-05-06 19:05 47.14589 21.45752 34912 ft 473 kts 122°
2026-05-06 19:06 47.11249 21.53980 34909 ft 473 kts 122°
2026-05-06 19:06 47.07886 21.62241 34915 ft 474 kts 122°
2026-05-06 19:07 47.04493 21.70551 34914 ft 474 kts 122°
2026-05-06 19:07 47.01111 21.78808 34924 ft 473 kts 122°
2026-05-06 19:08 46.97737 21.87021 34934 ft 473 kts 122°
2026-05-06 19:08 46.94331 21.95283 34940 ft 473 kts 122°
2026-05-06 19:09 46.90944 22.03459 34932 ft 473 kts 123°
2026-05-06 19:09 46.87502 22.11641 34930 ft 474 kts 123°
2026-05-06 19:10 46.84040 22.19867 34937 ft 474 kts 122°
2026-05-06 19:10 46.80598 22.28019 34942 ft 474 kts 122°
2026-05-06 19:11 46.77114 22.36247 34942 ft 475 kts 122°
2026-05-06 19:11 46.73639 22.44431 34952 ft 476 kts 122°
2026-05-06 19:12 46.70144 22.52638 34974 ft 477 kts 122°
2026-05-06 19:12 46.66660 22.60796 34999 ft 476 kts 122°
2026-05-06 19:13 46.63141 22.69008 35003 ft 477 kts 123°
2026-05-06 19:13 46.59645 22.77141 35027 ft 477 kts 123°
2026-05-06 19:14 46.56131 22.85295 35022 ft 478 kts 123°
2026-05-06 19:14 46.52618 22.93422 35039 ft 479 kts 122°
2026-05-06 19:15 46.49071 23.01606 35055 ft 478 kts 122°
2026-05-06 19:15 46.45528 23.09753 35061 ft 479 kts 122°
2026-05-06 19:16 46.41991 23.17863 35068 ft 478 kts 122°
2026-05-06 19:16 46.38423 23.26023 35066 ft 479 kts 122°
2026-05-06 19:17 46.34879 23.34101 35057 ft 479 kts 122°
2026-05-06 19:17 46.31299 23.42240 35031 ft 479 kts 122°
2026-05-06 19:18 46.27706 23.50383 35011 ft 479 kts 122°
2026-05-06 19:18 46.24130 23.58467 34998 ft 480 kts 122°
2026-05-06 19:19 46.20540 23.66558 34989 ft 479 kts 122°
2026-05-06 19:19 46.16940 23.74646 34988 ft 480 kts 122°
2026-05-06 19:20 46.13306 23.82787 34980 ft 480 kts 122°
2026-05-06 19:20 46.09719 23.90802 34987 ft 479 kts 123°
2026-05-06 19:21 46.06086 23.98893 34979 ft 480 kts 122°
2026-05-06 19:21 46.02473 24.06918 34991 ft 480 kts 122°
2026-05-06 19:22 45.98841 24.14962 34998 ft 481 kts 122°
2026-05-06 19:22 45.95185 24.23035 35000 ft 482 kts 122°
2026-05-06 19:23 45.91539 24.31065 35001 ft 481 kts 122°
2026-05-06 19:23 45.87876 24.39107 35000 ft 481 kts 122°
2026-05-06 19:24 45.84209 24.47136 35002 ft 481 kts 122°
2026-05-06 19:24 45.80511 24.55209 35005 ft 482 kts 122°
2026-05-06 19:25 45.76826 24.63232 35016 ft 481 kts 121°
2026-05-06 19:25 45.73136 24.71244 35015 ft 483 kts 122°
2026-05-06 19:26 45.69447 24.79229 35041 ft 483 kts 122°
2026-05-06 19:26 45.65723 24.87271 35072 ft 483 kts 122°
2026-05-06 19:27 45.62026 24.95226 35090 ft 484 kts 122°
2026-05-06 19:27 45.58301 25.03223 35101 ft 483 kts 122°
2026-05-06 19:28 45.54567 25.11213 35105 ft 483 kts 122°
2026-05-06 19:28 45.50853 25.19144 35097 ft 483 kts 122°
2026-05-06 19:29 45.47111 25.27107 35079 ft 482 kts 122°
2026-05-06 19:29 45.43356 25.35077 35080 ft 483 kts 122°
2026-05-06 19:30 45.39617 25.42991 35075 ft 482 kts 122°
2026-05-06 19:30 45.35868 25.50906 35072 ft 483 kts 122°
2026-05-06 19:31 45.32133 25.58766 35072 ft 482 kts 122°
2026-05-06 19:31 45.26484 25.70615 35063 ft 483 kts 122°
2026-05-06 19:32 45.22697 25.78529 35052 ft 483 kts 122°
2026-05-06 19:32 45.18916 25.86410 35047 ft 483 kts 122°
2026-05-06 19:33 45.15155 25.94229 35046 ft 483 kts 122°
2026-05-06 19:33 45.11367 26.02085 35040 ft 483 kts 122°
2026-05-06 19:34 45.07567 26.09941 35041 ft 483 kts 122°
2026-05-06 19:34 45.03760 26.17788 35039 ft 483 kts 122°
2026-05-06 19:35 44.99973 26.25575 35042 ft 482 kts 122°
2026-05-06 19:35 44.96158 26.33398 35044 ft 483 kts 122°
2026-05-06 19:36 44.92355 26.41175 35046 ft 483 kts 122°
2026-05-06 19:36 44.88531 26.48974 35045 ft 483 kts 122°
2026-05-06 19:37 44.84708 26.56749 35042 ft 483 kts 122°
2026-05-06 19:37 44.81480 26.63296 35047 ft 482 kts 121°
2026-05-06 19:38 44.77012 26.72337 35052 ft 482 kts 122°
2026-05-06 19:38 44.73142 26.80146 35052 ft 483 kts 122°
2026-05-06 19:39 44.69309 26.87855 35051 ft 483 kts 122°
2026-05-06 19:39 44.65450 26.95601 35043 ft 482 kts 122°
2026-05-06 19:40 44.61591 27.03324 35045 ft 482 kts 122°
2026-05-06 19:40 44.57756 27.10975 35046 ft 481 kts 122°
2026-05-06 19:41 44.53893 27.18664 35053 ft 481 kts 122°
2026-05-06 19:41 44.50030 27.26336 35056 ft 480 kts 122°
2026-05-06 19:42 44.46162 27.33993 35055 ft 480 kts 122°
2026-05-06 19:42 44.42291 27.41638 35062 ft 481 kts 122°
2026-05-06 19:43 44.38417 27.49268 35061 ft 481 kts 122°
2026-05-06 19:43 44.34524 27.56914 35068 ft 479 kts 122°
2026-05-06 19:44 44.30645 27.64516 35070 ft 479 kts 122°
2026-05-06 19:44 44.26759 27.72107 35072 ft 479 kts 122°
2026-05-06 19:45 44.22883 27.79664 35079 ft 478 kts 122°
2026-05-06 19:45 44.18998 27.87214 35083 ft 477 kts 122°
2026-05-06 19:46 44.15127 27.94722 35086 ft 479 kts 122°
2026-05-06 19:46 44.11236 28.02246 35089 ft 478 kts 122°
2026-05-06 19:47 44.07352 28.09737 35089 ft 476 kts 122°
2026-05-06 19:47 44.03486 28.17178 35088 ft 475 kts 123°
2026-05-06 19:48 43.99605 28.24622 35089 ft 475 kts 122°
2026-05-06 19:48 43.95715 28.32071 35089 ft 475 kts 122°
2026-05-06 19:49 43.91817 28.39515 35092 ft 474 kts 123°
2026-05-06 19:49 43.87949 28.46880 35080 ft 474 kts 123°
2026-05-06 19:50 43.84039 28.54304 35082 ft 474 kts 123°
2026-05-06 19:50 43.80152 28.61670 35285 ft 472 kts 123°
2026-05-06 19:51 43.78229 28.65308 35668 ft 466 kts 123°
2026-05-06 19:51 43.76311 28.68931 35980 ft 462 kts 123°
2026-05-06 19:51 43.74438 28.72465 36290 ft 458 kts 123°
2026-05-06 19:51 43.72547 28.76028 36685 ft 453 kts 123°
2026-05-06 19:52 43.70705 28.79497 36975 ft 452 kts 123°
2026-05-06 19:52 43.68871 28.83099 36222 ft 460 kts 121°
2026-05-06 19:52 43.66980 28.86678 35422 ft 467 kts 124°
2026-05-06 19:52 43.65068 28.90287 35034 ft 465 kts 123°
2026-05-06 19:53 43.63177 28.93882 35191 ft 466 kts 123°
2026-05-06 19:53 43.61255 28.97546 35070 ft 475 kts 123°
2026-05-06 19:53 43.57357 29.04967 35097 ft 476 kts 123°
2026-05-06 19:54 43.53514 29.12266 35089 ft 471 kts 123°
2026-05-06 19:54 43.49670 29.19551 35093 ft 470 kts 123°
2026-05-06 19:55 43.45807 29.26853 35095 ft 471 kts 123°
2026-05-06 19:55 43.41925 29.34172 35093 ft 471 kts 123°
2026-05-06 19:56 43.38065 29.41433 35094 ft 470 kts 123°
2026-05-06 19:56 43.34205 29.48674 35095 ft 470 kts 123°
2026-05-06 19:57 43.30320 29.55948 35096 ft 471 kts 123°
2026-05-06 19:57 43.26431 29.63207 35094 ft 469 kts 123°
2026-05-06 19:58 43.22584 29.70371 35095 ft 469 kts 123°
2026-05-06 19:58 43.18692 29.77603 35094 ft 470 kts 123°
2026-05-06 19:59 43.14805 29.84807 35095 ft 469 kts 123°
2026-05-06 19:59 43.10900 29.92029 35090 ft 470 kts 124°
2026-05-06 20:00 43.07029 29.99168 35096 ft 471 kts 124°
2026-05-06 20:00 43.03133 30.06336 35097 ft 470 kts 123°
2026-05-06 20:01 42.99224 30.13510 35096 ft 469 kts 123°
2026-05-06 20:01 42.95340 30.20622 35094 ft 468 kts 123°
2026-05-06 20:02 42.91444 30.27740 35100 ft 468 kts 123°
2026-05-06 20:02 42.87531 30.34870 35096 ft 466 kts 123°
2026-05-06 20:03 42.83640 30.41943 35095 ft 467 kts 123°
2026-05-06 20:03 42.79707 30.49077 35101 ft 469 kts 123°
2026-05-06 20:04 42.76028 30.56319 35085 ft 465 kts 115°
2026-05-06 20:04 42.73460 30.64315 35107 ft 459 kts 103°
2026-05-06 20:05 42.72190 30.72791 35095 ft 452 kts 91°
2026-05-06 20:05 42.71649 30.81271 35102 ft 452 kts 93°
2026-05-06 20:06 42.70828 30.89718 35107 ft 452 kts 94°
2026-05-06 20:06 42.69961 30.98169 35111 ft 452 kts 94°
2026-05-06 20:07 42.69082 31.06625 35103 ft 451 kts 94°
2026-05-06 20:07 42.68201 31.15037 35093 ft 452 kts 94°
2026-05-06 20:08 42.67309 31.23506 35103 ft 452 kts 94°
2026-05-06 20:08 42.66409 31.31972 35100 ft 452 kts 94°
2026-05-06 20:09 42.65508 31.40386 35094 ft 452 kts 94°
2026-05-06 20:09 42.64593 31.48882 35105 ft 452 kts 94°
2026-05-06 20:10 42.63681 31.57286 35092 ft 452 kts 94°
2026-05-06 20:10 42.62756 31.65748 35095 ft 452 kts 94°
2026-05-06 20:11 42.61829 31.74178 35098 ft 452 kts 94°
2026-05-06 20:11 42.60901 31.82553 35110 ft 452 kts 94°
2026-05-06 20:12 42.59958 31.91000 35101 ft 451 kts 94°
2026-05-06 20:12 42.59011 31.99419 35106 ft 452 kts 94°
2026-05-06 20:13 42.58071 32.07885 35092 ft 451 kts 94°
2026-05-06 20:13 42.57108 32.16325 35082 ft 452 kts 94°
2026-05-06 20:14 42.56142 32.24748 35100 ft 452 kts 94°